Year,Month,Day,Hour,Minute,Value (Times are PST for temperature in C)
2008,12,16,00,00,-8.90
2008,12,16,00,01,-8.90
2008,12,16,00,02,-8.90
2008,12,16,00,03,-8.90
2008,12,16,00,04,-9.00
2008,12,16,00,05,-9.00
2008,12,16,00,06,-9.00
2008,12,16,00,07,-9.10
2008,12,16,00,08,-9.10
2008,12,16,00,09,-9.10
2008,12,16,00,10,-9.10
2008,12,16,00,11,-9.10
2008,12,16,00,12,-9.10
2008,12,16,00,13,-9.10
2008,12,16,00,14,-9.10
2008,12,16,00,15,-9.10
2008,12,16,00,16,-9.10
2008,12,16,00,17,-9.10
2008,12,16,00,18,-9.10
2008,12,16,00,19,-9.10
2008,12,16,00,20,-9.10
2008,12,16,00,21,-9.10
2008,12,16,00,22,-9.10
2008,12,16,00,23,-9.10
2008,12,16,00,24,-9.10
2008,12,16,00,25,-9.20
2008,12,16,00,26,-9.20
2008,12,16,00,27,-9.20
2008,12,16,00,28,-9.20
2008,12,16,00,29,-9.30
2008,12,16,00,30,-9.30
2008,12,16,00,31,-9.30
2008,12,16,00,32,-9.30
2008,12,16,00,33,-9.30
2008,12,16,00,34,-9.30
2008,12,16,00,35,-9.20
2008,12,16,00,36,-9.20
2008,12,16,00,37,-9.20
2008,12,16,00,38,-9.20
2008,12,16,00,39,-9.20
2008,12,16,00,40,-9.20
2008,12,16,00,41,-9.20
2008,12,16,00,42,-9.20
2008,12,16,00,43,-9.30
2008,12,16,00,44,-9.30
2008,12,16,00,45,-9.30
2008,12,16,00,46,-9.30
2008,12,16,00,47,-9.30
2008,12,16,00,48,-9.30
2008,12,16,00,49,-9.30
2008,12,16,00,50,-9.30
2008,12,16,00,51,-9.30
2008,12,16,00,52,-9.30
2008,12,16,00,53,-9.30
2008,12,16,00,54,-9.40
2008,12,16,00,55,-9.40
2008,12,16,00,56,-9.40
2008,12,16,00,57,-9.40
2008,12,16,00,58,-9.40
2008,12,16,00,59,-9.40
2008,12,16,01,00,-9.40
2008,12,16,01,01,-9.40
2008,12,16,01,02,-9.40
2008,12,16,01,03,-9.50
2008,12,16,01,04,-9.50
2008,12,16,01,05,-9.50
2008,12,16,01,06,-9.50
2008,12,16,01,07,-9.50
2008,12,16,01,08,-9.50
2008,12,16,01,09,-9.50
2008,12,16,01,10,-9.50
2008,12,16,01,11,-9.50
2008,12,16,01,12,-9.50
2008,12,16,01,13,-9.50
2008,12,16,01,14,-9.60
2008,12,16,01,15,-9.60
2008,12,16,01,16,-9.60
2008,12,16,01,17,-9.50
2008,12,16,01,18,-9.50
2008,12,16,01,19,-9.40
2008,12,16,01,20,-9.40
2008,12,16,01,21,-9.30
2008,12,16,01,22,-9.30
2008,12,16,01,23,-9.30
2008,12,16,01,24,-9.10
2008,12,16,01,25,-9.10
2008,12,16,01,26,-9.10
2008,12,16,01,27,-9.00
2008,12,16,01,28,-9.00
2008,12,16,01,29,-9.00
2008,12,16,01,30,-9.10
2008,12,16,01,31,-9.10
2008,12,16,01,32,-9.10
2008,12,16,01,33,-9.00
2008,12,16,01,34,-9.00
2008,12,16,01,35,-9.00
2008,12,16,01,36,-9.00
2008,12,16,01,37,-9.00
2008,12,16,01,38,-9.10
2008,12,16,01,39,-9.00
2008,12,16,01,40,-9.00
2008,12,16,01,41,-9.00
2008,12,16,01,42,-9.00
2008,12,16,01,43,-8.90
2008,12,16,01,44,-8.90
2008,12,16,01,45,-8.90
2008,12,16,01,46,-8.90
2008,12,16,01,47,-8.90
2008,12,16,01,48,-8.90
2008,12,16,01,49,-8.80
2008,12,16,01,50,-8.80
2008,12,16,01,51,-8.80
2008,12,16,01,52,-8.80
2008,12,16,01,53,-8.80
2008,12,16,01,54,-8.80
2008,12,16,01,55,-8.80
2008,12,16,01,56,-8.80
2008,12,16,01,57,-8.80
2008,12,16,01,58,-8.80
2008,12,16,01,59,-8.80
2008,12,16,02,00,-8.80
2008,12,16,02,01,-8.90
2008,12,16,02,02,-8.90
2008,12,16,02,03,-8.90
2008,12,16,02,04,-8.90
2008,12,16,02,05,-8.90
2008,12,16,02,06,-8.90
2008,12,16,02,07,-8.90
2008,12,16,02,08,-8.90
2008,12,16,02,09,-8.90
2008,12,16,02,10,-8.90
2008,12,16,02,11,-8.90
2008,12,16,02,12,-8.90
2008,12,16,02,13,-8.90
2008,12,16,02,14,-8.80
2008,12,16,02,15,-8.80
2008,12,16,02,16,-8.80
2008,12,16,02,17,-8.80
2008,12,16,02,18,-8.80
2008,12,16,02,19,-8.70
2008,12,16,02,20,-8.70
2008,12,16,02,21,-8.70
2008,12,16,02,22,-8.70
2008,12,16,02,23,-8.60
2008,12,16,02,24,-8.60
2008,12,16,02,25,-8.60
2008,12,16,02,26,-8.60
2008,12,16,02,27,-8.50
2008,12,16,02,28,-8.50
2008,12,16,02,29,-8.50
2008,12,16,02,30,-8.50
2008,12,16,02,31,-8.40
2008,12,16,02,32,-8.40
2008,12,16,02,33,-8.50
2008,12,16,02,34,-8.50
2008,12,16,02,35,-8.60
2008,12,16,02,36,-8.60
2008,12,16,02,37,-8.60
2008,12,16,02,38,-8.70
2008,12,16,02,39,-8.70
2008,12,16,02,40,-8.70
2008,12,16,02,41,-8.80
2008,12,16,02,42,-8.80
2008,12,16,02,43,-8.80
2008,12,16,02,44,-8.80
2008,12,16,02,45,-8.90
2008,12,16,02,46,-8.90
2008,12,16,02,47,-8.90
2008,12,16,02,48,-8.90
2008,12,16,02,49,-8.90
2008,12,16,02,50,-8.90
2008,12,16,02,51,-8.90
2008,12,16,02,52,-9.10
2008,12,16,02,53,-9.10
2008,12,16,02,54,-9.10
2008,12,16,02,55,-9.10
2008,12,16,02,56,-9.10
2008,12,16,02,57,-9.10
2008,12,16,02,58,-9.10
2008,12,16,02,59,-9.10
2008,12,16,03,00,-9.10
2008,12,16,03,01,-9.10
2008,12,16,03,02,-9.10
2008,12,16,03,03,-9.10
2008,12,16,03,04,-9.10
2008,12,16,03,05,-9.10
2008,12,16,03,06,-9.10
2008,12,16,03,07,-9.10
2008,12,16,03,08,-9.10
2008,12,16,03,09,-9.10
2008,12,16,03,10,-9.10
2008,12,16,03,11,-9.10
2008,12,16,03,12,-9.10
2008,12,16,03,13,-9.10
2008,12,16,03,14,-9.10
2008,12,16,03,15,-9.10
2008,12,16,03,16,-9.10
2008,12,16,13,45,0.10
2008,12,16,13,46,0.10
2008,12,16,13,47,0.10
2008,12,16,13,48,0.10
2008,12,16,13,49,0.10
2008,12,16,13,50,0.10
2008,12,16,13,51,0.10
2008,12,16,13,52,0.10
2008,12,16,13,53,0.10
2008,12,16,13,54,0.10
2008,12,16,13,55,0.10
2008,12,16,13,56,0.10
2008,12,16,13,57,0.10
2008,12,16,13,58,0.10
2008,12,16,13,59,0.20
2008,12,16,14,00,0.20
2008,12,16,14,01,0.20
2008,12,16,14,02,0.30
2008,12,16,14,03,0.30
2008,12,16,14,04,0.30
2008,12,16,14,05,0.30
2008,12,16,14,06,0.30
2008,12,16,14,07,0.30
2008,12,16,14,08,0.30
2008,12,16,14,09,0.30
2008,12,16,14,10,0.30
2008,12,16,14,11,0.30
2008,12,16,14,12,0.30
2008,12,16,14,13,0.30
2008,12,16,14,14,0.30
2008,12,16,14,15,0.30
2008,12,16,14,16,0.30
2008,12,16,14,17,0.30
2008,12,16,14,18,0.20
2008,12,16,14,19,0.20
2008,12,16,14,20,0.10
2008,12,16,14,21,0.00
2008,12,16,14,22,-0.10
2008,12,16,14,23,-0.20
2008,12,16,14,24,-0.20
2008,12,16,14,25,-0.20
2008,12,16,14,26,-0.30
2008,12,16,14,27,-0.30
2008,12,16,14,28,-0.30
2008,12,16,14,29,-0.30
2008,12,16,14,30,-0.30
2008,12,16,14,31,-0.30
2008,12,16,14,32,-0.30
2008,12,16,14,33,-0.30
2008,12,16,14,34,-0.30
2008,12,16,14,35,-0.30
2008,12,16,14,36,-0.30
2008,12,16,14,37,-0.20
2008,12,16,14,38,-0.20
2008,12,16,14,39,-0.20
2008,12,16,14,40,-0.10
2008,12,16,14,41,-0.10
2008,12,16,14,42,-0.10
2008,12,16,14,43,0.00
2008,12,16,14,44,0.00
2008,12,16,14,45,0.00
2008,12,16,14,46,-0.10
2008,12,16,14,47,-0.10
2008,12,16,14,48,-0.10
2008,12,16,14,49,-0.10
2008,12,16,14,50,-0.10
2008,12,16,14,51,-0.10
2008,12,16,14,52,-0.10
2008,12,16,14,53,-0.10
2008,12,16,14,54,0.00
2008,12,16,14,55,0.00
2008,12,16,14,56,0.00
2008,12,16,14,57,0.00
2008,12,16,14,58,0.00
2008,12,16,14,59,0.00
2008,12,16,15,00,0.10
2008,12,16,15,01,0.10
2008,12,16,15,02,0.10
2008,12,16,15,03,0.10
2008,12,16,15,04,0.10
2008,12,16,15,05,0.10
2008,12,16,15,06,0.10
2008,12,16,15,07,0.20
2008,12,16,15,08,0.20
2008,12,16,15,09,0.20
2008,12,16,15,10,0.20
2008,12,16,15,11,0.20
2008,12,16,15,12,0.20
2008,12,16,15,13,0.20
2008,12,16,15,14,0.20
2008,12,16,15,15,0.40
2008,12,16,15,16,0.50
2008,12,16,15,17,0.60
2008,12,16,15,18,0.60
2008,12,16,15,19,0.70
2008,12,16,15,20,0.70
2008,12,16,15,21,0.80
2008,12,16,15,22,0.80
2008,12,16,15,23,0.80
2008,12,16,15,24,0.80
2008,12,16,15,25,0.80
2008,12,16,15,26,0.80
2008,12,16,15,27,0.80
2008,12,16,15,28,0.80
2008,12,16,15,29,0.70
2008,12,16,15,30,0.60
2008,12,16,15,31,0.60
2008,12,16,15,32,0.50
2008,12,16,15,33,0.50
2008,12,16,15,34,0.40
2008,12,16,15,35,0.30
2008,12,16,15,36,0.30
2008,12,16,15,37,0.20
2008,12,16,15,38,0.20
2008,12,16,15,39,0.10
2008,12,16,15,40,0.10
2008,12,16,15,41,0.00
2008,12,16,15,42,0.00
2008,12,16,15,43,-0.10
2008,12,16,15,44,-0.10
2008,12,16,15,45,-0.10
2008,12,16,15,46,-0.10
2008,12,16,15,47,-0.20
2008,12,16,15,48,-0.20
2008,12,16,15,49,-0.20
2008,12,16,15,50,-0.20
2008,12,16,15,51,-0.20
2008,12,16,15,52,-0.30
2008,12,16,15,53,-0.40
2008,12,16,15,54,-0.50
2008,12,16,15,55,-0.50
2008,12,16,15,56,-0.60
2008,12,16,15,57,-0.60
2008,12,16,15,58,-0.60
2008,12,16,15,59,-0.70
2008,12,16,16,00,-0.70
2008,12,16,16,01,-0.70
2008,12,16,16,02,-0.80
2008,12,16,16,03,-0.80
2008,12,16,16,04,-0.90
2008,12,16,16,05,-0.90
2008,12,16,16,06,-0.90
2008,12,16,16,07,-1.00
2008,12,16,16,08,-1.00
2008,12,16,16,09,-1.10
2008,12,16,16,10,-1.10
2008,12,16,16,11,-1.10
2008,12,16,16,12,-1.20
2008,12,16,16,13,-1.20
2008,12,16,16,14,-1.20
2008,12,16,16,15,-1.30
2008,12,16,16,16,-1.30
2008,12,16,16,17,-1.30
2008,12,16,16,18,-1.30
2008,12,16,16,19,-1.30
2008,12,16,16,20,-1.30
2008,12,16,16,21,-1.40
2008,12,16,16,22,-1.40
2008,12,16,16,23,-1.40
2008,12,16,16,24,-1.40
2008,12,16,16,25,-1.50
2008,12,16,16,26,-1.50
2008,12,16,16,27,-1.60
2008,12,16,16,28,-1.60
2008,12,16,16,29,-1.60
2008,12,16,16,30,-1.70
2008,12,16,16,31,-1.70
2008,12,16,16,32,-1.70
2008,12,16,16,33,-1.70
2008,12,16,16,34,-1.80
2008,12,16,16,35,-1.80
2008,12,16,16,36,-1.80
2008,12,16,16,37,-1.80
2008,12,16,16,38,-1.90
2008,12,16,16,39,-1.90
2008,12,16,16,40,-1.90
2008,12,16,16,41,-1.90
2008,12,16,16,42,-1.90
2008,12,16,16,43,-2.00
2008,12,16,16,44,-2.00
2008,12,16,16,45,-2.00
2008,12,16,16,46,-2.00
2008,12,16,16,47,-2.00
2008,12,16,16,48,-2.10
2008,12,16,16,49,-2.10
2008,12,16,16,50,-2.10
2008,12,16,16,51,-2.10
2008,12,16,16,52,-2.10
2008,12,16,16,53,-2.10
2008,12,16,16,54,-2.10
2008,12,16,16,55,-2.10
2008,12,16,16,56,-2.10
2008,12,16,16,57,-2.20
2008,12,16,16,58,-2.20
2008,12,16,16,59,-2.20
2008,12,16,17,00,-2.20
2008,12,16,17,01,-2.20
2008,12,16,17,02,-2.20
2008,12,16,17,03,-2.20
2008,12,16,17,04,-2.20
2008,12,16,17,05,-2.20
2008,12,16,17,06,-2.20
2008,12,16,17,07,-2.20
2008,12,16,17,08,-2.20
2008,12,16,17,09,-2.20
2008,12,16,17,10,-2.20
2008,12,16,17,11,-2.20
2008,12,16,17,12,-2.20
2008,12,16,17,13,-2.20
2008,12,16,17,14,-2.20
2008,12,16,17,15,-2.20
2008,12,16,17,16,-2.20
2008,12,16,17,17,-2.20
2008,12,16,17,18,-2.20
2008,12,16,17,19,-2.10
2008,12,16,17,20,-2.10
2008,12,16,17,21,-2.10
2008,12,16,17,22,-2.10
2008,12,16,17,23,-2.10
2008,12,16,17,24,-2.10
2008,12,16,17,25,-2.10
2008,12,16,17,26,-2.10
2008,12,16,17,27,-2.10
2008,12,16,17,28,-2.10
2008,12,16,17,29,-2.10
2008,12,16,17,30,-2.10
2008,12,16,17,31,-2.10
2008,12,16,17,32,-2.10
2008,12,16,17,33,-2.10
2008,12,16,17,34,-2.10
2008,12,16,17,35,-2.10
2008,12,16,17,36,-2.10
2008,12,16,17,37,-2.20
2008,12,16,17,38,-2.20
2008,12,16,17,39,-2.20
2008,12,16,17,40,-2.20
2008,12,16,17,41,-2.20
2008,12,16,17,42,-2.20
2008,12,16,17,43,-2.20
2008,12,16,17,44,-2.20
2008,12,16,17,45,-2.20
2008,12,16,17,46,-2.20
2008,12,16,17,47,-2.20
2008,12,16,17,48,-2.20
2008,12,16,17,49,-2.20
2008,12,16,17,50,-2.20
2008,12,16,17,51,-2.20
2008,12,16,17,52,-2.20
2008,12,16,17,53,-2.20
2008,12,16,17,54,-2.20
2008,12,16,17,55,-2.20
2008,12,16,17,56,-2.20
2008,12,16,17,57,-2.20
2008,12,16,17,58,-2.20
2008,12,16,17,59,-2.20
2008,12,16,18,00,-2.20
2008,12,16,18,01,-2.20
2008,12,16,18,02,-2.20
2008,12,16,18,03,-2.20
2008,12,16,18,04,-2.10
2008,12,16,18,05,-2.10
2008,12,16,18,06,-2.10
2008,12,16,18,07,-2.10
2008,12,16,18,08,-2.10
2008,12,16,18,09,-2.10
2008,12,16,18,10,-2.00
2008,12,16,18,11,-2.00
2008,12,16,18,12,-2.00
2008,12,16,18,13,-2.00
2008,12,16,18,14,-1.90
2008,12,16,18,15,-1.90
2008,12,16,18,16,-1.90
2008,12,16,18,17,-1.90
2008,12,16,18,18,-1.90
2008,12,16,18,19,-1.90
2008,12,16,18,20,-2.00
2008,12,16,18,21,-2.00
2008,12,16,18,22,-2.00
2008,12,16,18,23,-2.00
2008,12,16,18,24,-2.00
2008,12,16,18,25,-2.00
2008,12,16,18,26,-2.00
2008,12,16,18,27,-1.90
2008,12,16,18,28,-1.90
2008,12,16,18,29,-1.90
2008,12,16,18,30,-1.90
2008,12,16,18,31,-1.90
2008,12,16,18,32,-1.90
2008,12,16,18,33,-1.90
2008,12,16,18,34,-2.00
2008,12,16,18,35,-1.90
2008,12,16,18,36,-2.00
2008,12,16,18,37,-2.00
2008,12,16,18,38,-2.00
2008,12,16,18,39,-2.00
2008,12,16,18,40,-2.00
2008,12,16,18,41,-2.00
2008,12,16,18,42,-1.90
2008,12,16,18,43,-1.90
2008,12,16,18,44,-2.00
2008,12,16,18,45,-2.00
2008,12,16,18,46,-2.00
2008,12,16,18,47,-1.90
2008,12,16,18,48,-2.00
2008,12,16,18,49,-2.00
2008,12,16,18,50,-2.00
2008,12,16,18,51,-2.00
2008,12,16,18,52,-2.00
2008,12,16,18,53,-2.00
2008,12,16,18,54,-2.00
2008,12,16,18,55,-2.10
2008,12,16,18,56,-2.10
2008,12,16,18,57,-2.00
2008,12,16,18,58,-2.00
2008,12,16,18,59,-2.00
2008,12,16,19,00,-2.00
2008,12,16,19,01,-2.00
2008,12,16,19,02,-2.00
2008,12,16,19,03,-2.00
2008,12,16,19,04,-2.00
2008,12,16,19,05,-1.90
2008,12,16,19,06,-1.90
2008,12,16,19,07,-1.90
2008,12,16,19,08,-1.90
2008,12,16,19,09,-1.90
2008,12,16,19,10,-1.90
2008,12,16,19,11,-1.90
2008,12,16,19,12,-1.90
2008,12,16,19,13,-1.90
2008,12,16,19,14,-1.90
2008,12,16,19,15,-1.90
2008,12,16,19,16,-1.90
2008,12,16,19,17,-1.90
2008,12,16,19,18,-1.90
2008,12,16,19,19,-1.90
2008,12,16,19,20,-1.90
2008,12,16,19,21,-1.90
2008,12,16,19,22,-1.90
2008,12,16,19,23,-1.90
2008,12,16,19,24,-1.90
2008,12,16,19,25,-1.90
2008,12,16,19,26,-1.90
2008,12,16,19,27,-1.90
2008,12,16,19,28,-1.90
2008,12,16,19,29,-1.90
2008,12,16,19,30,-2.00
2008,12,16,19,31,-2.00
2008,12,16,19,32,-2.00
2008,12,16,19,33,-2.00
2008,12,16,19,34,-2.00
2008,12,16,19,35,-2.00
2008,12,16,19,36,-2.00
2008,12,16,19,37,-2.00
2008,12,16,19,38,-2.00
2008,12,16,19,39,-2.00
2008,12,16,19,40,-2.00
2008,12,16,19,41,-2.00
2008,12,16,19,42,-2.00
2008,12,16,19,43,-2.00
2008,12,16,19,44,-2.00
2008,12,16,19,45,-2.00
2008,12,16,19,46,-2.00
2008,12,16,19,47,-2.00
2008,12,16,19,48,-2.00
2008,12,16,19,49,-2.00
2008,12,16,19,50,-2.00
2008,12,16,19,51,-2.00
2008,12,16,19,52,-2.00
2008,12,16,19,53,-2.00
2008,12,16,19,54,-2.00
2008,12,16,19,55,-2.00
2008,12,16,19,56,-2.00
2008,12,16,19,57,-2.00
2008,12,16,19,58,-2.00
2008,12,16,19,59,-2.00
2008,12,16,20,00,-2.00
2008,12,16,20,01,-2.00
2008,12,16,20,02,-2.10
2008,12,16,20,03,-2.00
2008,12,16,20,04,-2.10
2008,12,16,20,05,-2.10
2008,12,16,20,06,-2.10
2008,12,16,20,07,-2.00
2008,12,16,20,08,-2.10
2008,12,16,20,09,-2.10
2008,12,16,20,10,-2.00
2008,12,16,20,11,-2.00
2008,12,16,20,12,-2.10
2008,12,16,20,13,-2.10
2008,12,16,20,14,-2.10
2008,12,16,20,15,-2.10
2008,12,16,20,16,-2.00
2008,12,16,20,17,-2.00
2008,12,16,20,18,-2.00
2008,12,16,20,19,-2.00
2008,12,16,20,20,-2.00
2008,12,16,20,21,-2.00
2008,12,16,20,22,-2.00
2008,12,16,20,23,-2.00
2008,12,16,20,24,-2.00
2008,12,16,20,25,-2.00
2008,12,16,20,26,-1.90
2008,12,16,20,27,-1.90
2008,12,16,20,28,-1.90
2008,12,16,20,29,-1.90
2008,12,16,20,30,-1.90
2008,12,16,20,31,-1.90
2008,12,16,20,32,-1.90
2008,12,16,20,33,-1.90
2008,12,16,20,34,-2.00
2008,12,16,20,35,-2.00
2008,12,16,20,36,-2.00
2008,12,16,20,37,-2.00
2008,12,16,20,38,-2.00
2008,12,16,20,39,-2.00
2008,12,16,20,40,-2.00
2008,12,16,20,41,-2.00
2008,12,16,20,42,-2.00
2008,12,16,20,43,-2.00
2008,12,16,20,44,-2.00
2008,12,16,20,45,-2.10
2008,12,16,20,46,-2.10
2008,12,16,20,47,-2.10
2008,12,16,20,48,-2.10
2008,12,16,20,49,-2.10
2008,12,16,20,50,-2.00
2008,12,16,20,51,-2.00
2008,12,16,20,52,-2.00
2008,12,16,20,53,-2.00
2008,12,16,20,54,-2.00
2008,12,16,20,55,-2.00
2008,12,16,20,56,-2.00
2008,12,16,20,57,-2.00
2008,12,16,20,58,-2.00
2008,12,16,20,59,-2.00
2008,12,16,21,00,-2.00
2008,12,16,21,01,-2.00
2008,12,16,21,02,-2.00
2008,12,16,21,03,-2.00
2008,12,16,21,04,-2.00
2008,12,16,21,05,-2.00
2008,12,16,21,06,-2.00
2008,12,16,21,07,-2.00
2008,12,16,21,08,-2.00
2008,12,16,21,09,-2.00
2008,12,16,21,10,-2.00
2008,12,16,21,11,-2.00
2008,12,16,21,12,-2.00
2008,12,16,21,13,-2.00
2008,12,16,21,14,-2.00
2008,12,16,21,15,-2.00
2008,12,16,21,16,-2.00
2008,12,16,21,17,-2.00
2008,12,16,21,18,-2.00
2008,12,16,21,19,-2.00
2008,12,16,21,20,-2.00
2008,12,16,21,21,-2.00
2008,12,16,21,22,-2.00
2008,12,16,21,23,-1.90
2008,12,16,21,24,-1.90
2008,12,16,21,25,-1.90
2008,12,16,21,26,-1.90
2008,12,16,21,27,-1.90
2008,12,16,21,28,-1.90
2008,12,16,21,29,-1.90
2008,12,16,21,30,-1.90
2008,12,16,21,31,-1.90
2008,12,16,21,32,-1.90
2008,12,16,21,33,-1.90
2008,12,16,21,34,-1.90
2008,12,16,21,35,-1.90
2008,12,16,21,36,-1.90
2008,12,16,21,37,-1.90
2008,12,16,21,38,-1.90
2008,12,16,21,39,-1.90
2008,12,16,21,40,-1.90
2008,12,16,21,41,-2.00
2008,12,16,21,42,-2.00
2008,12,16,21,43,-2.00
2008,12,16,21,44,-2.00
2008,12,16,21,45,-1.90
2008,12,16,21,46,-1.90
2008,12,16,21,47,-2.00
2008,12,16,21,48,-2.00
2008,12,16,21,49,-2.00
2008,12,16,21,50,-2.00
2008,12,16,21,51,-2.00
2008,12,16,21,52,-1.90
2008,12,16,21,53,-1.90
2008,12,16,21,54,-1.90
2008,12,16,21,55,-1.90
2008,12,16,21,56,-1.90
2008,12,16,21,57,-1.90
2008,12,16,21,58,-1.90
2008,12,16,21,59,-1.90
2008,12,16,22,00,-1.90
2008,12,16,22,01,-1.90
2008,12,16,22,02,-1.90
2008,12,16,22,03,-1.90
2008,12,16,22,04,-1.90
2008,12,16,22,05,-1.90
2008,12,16,22,06,-1.90
2008,12,16,22,07,-2.00
2008,12,16,22,08,-2.00
2008,12,16,22,09,-2.00
2008,12,16,22,10,-2.00
2008,12,16,22,11,-1.90
2008,12,16,22,12,-1.90
2008,12,16,22,13,-1.90
2008,12,16,22,14,-1.90
2008,12,16,22,15,-1.90
2008,12,16,22,16,-1.90
2008,12,16,22,17,-1.90
2008,12,16,22,18,-1.90
2008,12,16,22,19,-1.90
2008,12,16,22,20,-1.90
2008,12,16,22,21,-1.90
2008,12,16,22,22,-1.90
2008,12,16,22,23,-1.90
2008,12,16,22,24,-1.90
2008,12,16,22,25,-1.90
2008,12,16,22,26,-1.90
2008,12,16,22,27,-1.90
2008,12,16,22,28,-1.90
2008,12,16,22,29,-1.90
2008,12,16,22,30,-1.90
2008,12,16,22,31,-1.90
2008,12,16,22,32,-1.90
2008,12,16,22,33,-1.90
2008,12,16,22,34,-1.90
2008,12,16,22,35,-1.90
2008,12,16,22,36,-1.90
2008,12,16,22,37,-1.90
2008,12,16,22,38,-1.90
2008,12,16,22,39,-1.90
2008,12,16,22,40,-2.00
2008,12,16,22,41,-2.00
2008,12,16,22,42,-2.00
2008,12,16,22,43,-2.00
2008,12,16,22,44,-2.00
2008,12,16,22,45,-2.00
2008,12,16,22,46,-2.00
2008,12,16,22,47,-2.00
2008,12,16,22,48,-2.00
2008,12,16,22,49,-1.90
2008,12,16,22,50,-1.90
2008,12,16,22,51,-1.90
2008,12,16,22,52,-1.90
2008,12,16,22,53,-1.90
2008,12,16,22,54,-1.90
2008,12,16,22,55,-1.90
2008,12,16,22,56,-1.90
2008,12,16,22,57,-1.90
2008,12,16,22,58,-1.90
2008,12,16,22,59,-1.90
2008,12,16,23,00,-1.90
2008,12,16,23,01,-1.90
2008,12,16,23,02,-1.90
2008,12,16,23,03,-1.90
2008,12,16,23,04,-1.90
2008,12,16,23,05,-1.90
2008,12,16,23,06,-1.90
2008,12,16,23,07,-1.90
2008,12,16,23,08,-1.80
2008,12,16,23,09,-1.80
2008,12,16,23,10,-1.80
2008,12,16,23,11,-1.80
2008,12,16,23,12,-1.80
2008,12,16,23,13,-1.80
2008,12,16,23,14,-1.80
2008,12,16,23,15,-1.80
2008,12,16,23,16,-1.80
2008,12,16,23,17,-1.80
2008,12,16,23,18,-1.80
2008,12,16,23,19,-1.80
2008,12,16,23,20,-1.80
2008,12,16,23,21,-1.80
2008,12,16,23,22,-1.80
2008,12,16,23,23,-1.80
2008,12,16,23,24,-1.80
2008,12,16,23,25,-1.80
2008,12,16,23,26,-1.80
2008,12,16,23,27,-1.80
2008,12,16,23,28,-1.80
2008,12,16,23,29,-1.80
2008,12,16,23,30,-1.80
2008,12,16,23,31,-1.80
2008,12,16,23,32,-1.80
2008,12,16,23,33,-1.80
2008,12,16,23,34,-1.80
2008,12,16,23,35,-1.80
2008,12,16,23,36,-1.80
2008,12,16,23,37,-1.80
2008,12,16,23,38,-1.80
2008,12,16,23,39,-1.80
2008,12,16,23,40,-1.80
2008,12,16,23,41,-1.80
2008,12,16,23,42,-1.80
2008,12,16,23,43,-1.80
2008,12,16,23,44,-1.80
2008,12,16,23,45,-1.80
2008,12,16,23,46,-1.80
2008,12,16,23,47,-1.80
2008,12,16,23,48,-1.80
2008,12,16,23,49,-1.80
2008,12,16,23,50,-1.80
2008,12,16,23,51,-1.80
2008,12,16,23,52,-1.80
2008,12,16,23,53,-1.80
2008,12,16,23,54,-1.90
2008,12,16,23,55,-1.90
2008,12,16,23,56,-1.90
2008,12,16,23,57,-1.90
2008,12,16,23,58,-1.90
2008,12,16,23,59,-1.90
